User: anonymous   Login
Location: Radomski Observatory
(40.2854°N, 79.5145°W)
Time: 15:07:57
(UTC-05:00)
Language:

Uosat F - Orbit

View from above orbital plane
View from above orbital plane
View from above satellite
View from above satellite

Ground track
Ground track

The orbit data is extracted from the following two-line orbital elements,

1 21575U 91050B   17017.86877228 -.00000001  00000-0  14066-4 0  9992
2 21575  98.7624  30.6459 0007894  34.8861 325.2842 14.40779639339633
Epoch (UTC): 17 January 2017 20:51:01
Eccentricity: 0.0007894
inclination: 98.7624°
perigee height: 750 km
apogee height: 761 km
right ascension of ascending node: 30.6459°
argument of perigee: 34.8861°
revolutions per day: 14.40779639
mean anomaly at epoch: 325.2842°
orbit number at epoch: 33963

The dashed part of the orbit path shows where the satellite is in the earth's shadow,  

DLR